Home   Weather   West Allis   Past weeks
Flag for USA

Past Weather in West Allis, Wisconsin, USA — Yesterday and Last 2 Weeks

Now
35 °F

Mostly cloudy.


Feels Like: 28 °F
Forecast: 35 / 29 °F
Wind: 9 mph from Northwest

Location: General Mitchell International Airport

Current Time: Jan 27, 2020 at 3:26:47 pm

Latest Report: Jan 27, 2020 at 2:52 pm


Visibility: 10 mi

Pressure: 30.00 "Hg

Humidity: 72%

Dew Point: 27 °F

Location of West AllisLocation

Past Weather in West Allis — Graph

°F

West Allis Temperature Yesterday

Maximum temperature yesterday: 36 °F (at 12:52 am)
Minimum temperature yesterday: 31 °F (at 9:52 pm)
Average temperature yesterday: 34 °F

High & Low Weather Summary for the Past Weeks

 TemperatureHumidityPressure
High38 °F (Jan 14, 12:52 pm)93% (Jan 24, 9:52 am)30.86 "Hg (Jan 24, 9:52 am)
Low6 °F (Jan 19, 3:52 am)43% (Jan 16, 3:52 pm)29.61 "Hg (Jan 18, 10:32 am)
Average29 °F77%30.16 "Hg
* Reported Jan 12 1:52 pm — Jan 27 1:52 pm, West Allis. Weather by CustomWeather, © 2020

Note: Actual official high and low records may vary slightly from our data, if they occured in-between our weather recording intervals... More about our weather records

West Allis Weather History for the Previous 24 Hours

Scroll right to see more
 ConditionsComfort  
Time TempWeatherWind HumidityBarometerVisibility
1:52 pm
Mon, Jan 27
35 °FMore clouds than sun.7 mph72%29.99 "Hg10 mi
12:52 pm35 °FMostly cloudy.6 mph72%29.99 "Hg10 mi
11:52 am35 °FMostly cloudy.5 mph72%29.99 "Hg10 mi
10:52 am35 °FMore clouds than sun.6 mph72%30.00 "Hg10 mi
9:52 am34 °FOvercast.8 mph76%29.99 "Hg10 mi
8:52 am33 °FOvercast.6 mph78%29.97 "Hg10 mi
7:52 am32 °FOvercast.8 mph82%29.96 "Hg10 mi
7:34 am32 °FIce fog.8 mph82%29.93 "Hg10 mi
6:52 am32 °FIce fog.7 mph82%29.94 "Hg10 mi
5:52 am31 °FIce fog.8 mph85%29.93 "Hg6 mi
4:52 am31 °FLight snow. Overcast.5 mph82%29.92 "Hg4 mi
3:52 am31 °FOvercast.6 mph79%29.91 "Hg9 mi
2:52 am31 °FMostly cloudy.7 mph79%29.90 "Hg9 mi
1:52 am31 °FOvercast.8 mph79%29.90 "Hg9 mi
12:52 am31 °FMostly cloudy.6 mph76%29.91 "Hg8 mi
11:52 pm
Sun, Jan 26
31 °FMostly cloudy.8 mph79%29.91 "Hg8 mi
10:52 pm31 °FMostly cloudy.9 mph79%29.90 "Hg7 mi
9:52 pm31 °FLow clouds.8 mph82%29.90 "Hg8 mi
8:59 pm32 °FLow clouds.8 mph82%29.88 "Hg8 mi
7:52 pm33 °FOvercast.8 mph78%29.89 "Hg10 mi
6:52 pm33 °FOvercast.8 mph78%29.88 "Hg10 mi
5:52 pm33 °FOvercast.8 mph82%29.89 "Hg10 mi
4:52 pm34 °FOvercast.8 mph79%29.88 "Hg10 mi
3:52 pm34 °FOvercast.8 mph79%29.88 "Hg10 mi
Weather by CustomWeather, © 2020

See weather overview

Advertising